[[{"header":{"parameterUnit":"m.s-1","parameterCategory":1,"la1":30.2992,"la2":30.254,"lo1":-89.0895,"lo2":-89.0443,"dy":0.0025,"dx":0.0025,"nx":19,"ny":19,"refTime":"2026-04-22T21:00:00:Z","depth":0,"parameterNumber":2,"parameterNumberName":"U-component_of_WINDS"},"data":[0,0,0,-2.2241,-2.2242,-2.2325,-2.2325,-2.2417,-2.2417,0,0,0,0,0,0,0,0,0,0,0,-2.2209,-2.2209,-2.2241,-2.2242,-2.2325,-2.2325,-2.2416,-2.2417,0,0,0,0,0,0,0,0,0,0,0,-2.2209,-2.2209,-2.221,-2.2243,-2.2324,-2.2325,-2.2416,-2.2359,0,0,0,0,0,0,0,0,0,0,-2.2281,-2.2245,-2.2209,-2.221,-2.2243,-2.2324,-2.2325,-2.2356,-2.2362,-2.2374,0,-2.2383,0,-2.2401,-2.2423,-2.2423,0,0,0,-2.2248,-2.224,-2.2269,-2.221,-2.2244,-2.2324,-2.2289,-2.236,-2.2367,-2.2382,-2.2384,-2.2388,-2.2403,-2.2423,-2.2424,-2.2474,-2.2474,0,0,-2.2243,-2.222,-2.2264,-2.2273,-2.226,-2.2286,-2.2291,-2.2364,-2.2365,-2.2385,-2.239,-2.2404,-2.2424,-2.2424,-2.2474,-2.2474,0,0,0,-2.2226,-2.2216,-2.2244,-2.2269,-2.2285,-2.2288,-2.2294,-2.2362,-2.2373,-2.2391,-2.2406,-2.2424,-2.2425,-2.2474,-2.2474,-2.2451,0,0,0,-2.2224,-2.2207,-2.2241,-2.2228,-2.2283,-2.2324,-2.229,-2.2368,-2.2377,-2.2405,-2.2424,-2.2426,-2.2474,-2.2474,-2.2452,-2.2444,0,0,0,-2.2206,-2.2205,-2.2214,-2.2227,-2.2261,-2.2324,-2.2339,-2.237,-2.2385,-2.2423,-2.2426,-2.2474,-2.2474,-2.2453,-2.2446,-2.2451,0,0,0,-2.218,-2.2193,-2.2213,-2.2233,-2.226,-2.2309,-2.2339,-2.2377,-2.2406,-2.2425,-2.2474,-2.2474,-2.2453,-2.2446,-2.2451,-2.2451,-2.2449,0,0,-2.2183,-2.2192,-2.2205,-2.2226,-2.2266,-2.2299,-2.2335,-2.2384,-2.2408,-2.245,-2.2452,-2.2452,-2.2446,-2.2451,-2.2445,-2.2443,0,0,0,-2.2198,-2.2207,-2.2223,-2.2251,-2.2289,-2.2321,-2.2367,-2.2385,-2.2422,-2.2426,-2.2456,-2.2453,-2.2457,-2.2458,-2.2457,-2.2461,-2.2474,-2.2474,-2.2474,-2.2169,-2.22,-2.2224,-2.2264,-2.2291,-2.2338,-2.2362,-2.2395,-2.2418,-2.2425,-2.2437,-2.243,-2.243,-2.2429,-2.2434,-2.244,-2.244,-2.244,-2.244,-2.2175,-2.2193,-2.2224,-2.2258,-2.2291,-2.232,-2.2365,-2.2381,-2.2412,-2.2423,-2.2428,-2.2438,-2.2426,-2.2432,-2.2438,-2.2439,-2.2439,-2.2439,-2.2439,-2.2159,-2.2173,-2.2196,-2.2239,-2.2268,-2.2309,-2.2337,-2.2366,-2.2393,-2.2398,-2.2414,-2.2415,-2.2419,-2.2404,-2.2404,-2.2404,-2.2404,-2.2404,-2.2404,-2.2134,-2.216,-2.2181,-2.2222,-2.2243,-2.2275,-2.2323,-2.2344,-2.2376,-2.2394,-2.2394,-2.2416,-2.242,-2.242,-2.2404,-2.2404,-2.2404,-2.2404,-2.2404,-2.2129,-2.2135,-2.2167,-2.2188,-2.2239,-2.2266,-2.2302,-2.2344,-2.2366,-2.2379,-2.24,-2.2398,-2.2409,-2.2411,-2.2411,-2.2394,-2.2394,-2.2394,-2.2394,-2.2116,-2.2124,-2.2164,-2.2196,-2.2231,-2.2266,-2.2301,-2.2338,-2.2377,-2.2392,-2.2399,-2.2401,-2.2402,-2.2413,-2.2414,-2.2415,-2.2399,-2.2399,-2.2399,-2.2114,-2.2128,-2.2152,-2.219,-2.2232,-2.2267,-2.23,-2.2335,-2.2381,-2.24,-2.2405,-2.2404,-2.2409,-2.2409,-2.2428,-2.243,-2.2432,0,0]},{"header":{"parameterUnit":"m.s-1","parameterCategory":1,"la1":30.2992,"la2":30.254,"lo1":-89.0895,"lo2":-89.0443,"dy":0.0025,"dx":0.0025,"nx":19,"ny":19,"refTime":"2026-04-22T21:00:00:Z","depth":0,"parameterNumber":3,"parameterNumberName":"V-component_of_WINDS"},"data":[0,0,0,3.7505,3.7506,3.7518,3.7518,3.7552,3.7552,0,0,0,0,0,0,0,0,0,0,0,3.7514,3.7514,3.7505,3.7506,3.7518,3.7518,3.7552,3.7552,0,0,0,0,0,0,0,0,0,0,0,3.7513,3.7514,3.7515,3.7506,3.7518,3.7518,3.7551,3.7536,0,0,0,0,0,0,0,0,0,0,3.752,3.754,3.7514,3.7515,3.7506,3.7518,3.7518,3.7534,3.7537,3.7554,0,3.7574,0,3.7564,3.7556,3.7556,0,0,0,3.7497,3.7539,3.7531,3.7515,3.7506,3.7518,3.751,3.7535,3.7538,3.7557,3.7574,3.7575,3.7564,3.7556,3.7556,3.7689,3.769,0,0,3.7496,3.7522,3.753,3.7533,3.7534,3.751,3.751,3.7537,3.7557,3.7574,3.7575,3.7565,3.7556,3.7557,3.7688,3.7689,0,0,0,3.75,3.7522,3.7513,3.7532,3.7533,3.751,3.7511,3.7556,3.755,3.7576,3.7565,3.7557,3.7557,3.7687,3.7689,3.7766,0,0,0,3.7499,3.7525,3.7514,3.753,3.7533,3.7545,3.753,3.7549,3.7551,3.7565,3.7557,3.7558,3.7686,3.7688,3.7761,3.7798,0,0,0,3.7509,3.7525,3.7531,3.7531,3.7537,3.7544,3.754,3.7549,3.7545,3.7556,3.7558,3.7685,3.7688,3.7757,3.7791,3.784,0,0,0,3.7526,3.7601,3.7533,3.7612,3.7538,3.7592,3.7539,3.7578,3.7597,3.7557,3.7686,3.7688,3.7756,3.7787,3.7835,3.7885,3.7909,0,0,3.7635,3.7615,3.7659,3.7599,3.7672,3.7588,3.7671,3.7663,3.764,3.7674,3.7677,3.7763,3.779,3.7839,3.8031,3.805,0,0,0,3.7702,3.7734,3.7748,3.7766,3.7762,3.776,3.7737,3.7733,3.7761,3.7663,3.7793,3.7808,3.7836,3.7858,3.7874,3.7895,3.77,3.77,3.77,3.7894,3.786,3.793,3.7897,3.7915,3.7889,3.7901,3.7892,3.7852,3.7883,3.7893,3.8014,3.8042,3.8054,3.8076,3.7917,3.7917,3.7918,3.7918,3.805,3.8089,3.8033,3.8081,3.8044,3.8084,3.8061,3.8031,3.8062,3.8004,3.8027,3.7967,3.8075,3.8093,3.7923,3.7922,3.7922,3.7921,3.7921,3.8172,3.8184,3.8178,3.82,3.8221,3.8184,3.8216,3.8181,3.8148,3.817,3.8176,3.8174,3.8168,3.8175,3.8176,3.8176,3.8176,3.8177,3.8177,3.83,3.8291,3.8322,3.8322,3.8328,3.8332,3.8305,3.831,3.8306,3.8278,3.8278,3.8235,3.8092,3.8057,3.8183,3.8182,3.8181,3.8181,3.818,3.8471,3.8426,3.8474,3.8481,3.8476,3.8498,3.8452,3.8465,3.8463,3.848,3.8431,3.8332,3.8309,3.8296,3.8266,3.8439,3.8439,3.8439,3.8439,3.8574,3.8558,3.8598,3.861,3.8617,3.858,3.8634,3.8613,3.8584,3.8581,3.8551,3.8509,3.8497,3.8481,3.8464,3.8435,3.8647,3.8648,3.8648,3.8676,3.8659,3.8712,3.8683,3.8676,3.8671,3.872,3.8735,3.8693,3.8656,3.8577,3.8569,3.85,3.848,3.8442,3.8416,3.8364,0,0]}]]